Location: Casco Volunteer Fire Department
(44.5576°N, 87.6146°W)
Time: 14:59:26
(UTC+00:00)

SJ 16-02 - Visible Passes

Search period start: 19 April 2026 00:00
Search period end: 29 April 2026 00:00
Orbit: 582 x 593 km, 75.0° (Epoch: 19 April)

Date Brightness Start Highest point End Pass type
(mag) Time Alt. Az. Time Alt. Az. Time Alt. Az.
19 Apr 3.7 03:35:35 10° NNE 03:37:06 14° NE 03:37:06 14° NE visible
19 Apr 3.7 05:12:13 10° NNW 05:13:35 20° NNW 05:13:35 20° NNW visible
20 Apr 3.4 03:42:16 10° N 03:44:26 19° NE 03:44:26 19° NE visible
20 Apr 3.8 05:19:45 10° NNW 05:20:55 17° NW 05:20:55 17° NW visible
21 Apr 3.0 03:49:16 10° N 03:51:46 25° NNE 03:51:46 25° NNE visible
21 Apr 4.0 05:27:28 10° NW 05:28:15 14° NW 05:28:15 14° NW visible
22 Apr 2.7 03:56:23 10° N 03:59:07 33° NNE 03:59:07 33° NNE visible
22 Apr 4.2 05:35:29 10° WNW 05:35:37 11° WNW 05:35:37 11° WNW visible
23 Apr 2.4 04:03:39 10° NNW 04:06:30 40° N 04:06:30 40° N visible
24 Apr 3.4 02:34:39 10° NNE 02:36:41 13° NE 02:37:24 13° ENE visible
24 Apr 2.4 04:11:01 10° NNW 04:13:54 41° NW 04:13:54 41° NW visible
25 Apr 3.0 02:41:13 10° NNE 02:44:17 19° ENE 02:44:49 18° ENE visible
25 Apr 2.7 04:18:32 10° NNW 04:21:19 34° WNW 04:21:19 34° WNW visible
26 Apr 2.4 02:48:08 10° N 02:51:49 27° ENE 02:52:15 27° ENE visible
26 Apr 3.1 04:26:11 10° NW 04:28:45 25° WNW 04:28:45 25° WNW visible
27 Apr 1.8 02:55:14 10° N 02:59:17 41° ENE 02:59:43 40° E visible
27 Apr 3.5 04:34:06 10° NW 04:36:13 17° W 04:36:13 17° W visible
28 Apr 1.2 03:02:27 10° NNW 03:06:42 65° ENE 03:07:13 59° ESE visible
28 Apr 3.9 04:42:42 10° WNW 04:43:43 11° W 04:43:43 11° W visible
